This demonstration page uses our WeatherBlox Daily Observations layout. Learn more.

Left ArrowRight Arrow

Hourly Observations for April 13, 2021

Temp ( °F °C ) Dew Point ( °F °C ) Humidity (%) Winds ( mph kmh ) Pressure ( in mb ) Visibility ( mi km ) Precip ( " mm )
12:53 am 00:53 Clear 53 11.7 35 1.7 51 51 NNW 5 7 29.73 1007 10 16 0.00 0.00
1:53 am 01:53 Clear 51 10.6 36 2.2 56 56 NE 5 7 29.72 1007 10 16 0.00 0.00
2:53 am 02:53 Clear 50 10 34 1.1 54 54 Calm 29.72 1007 10 16 0.00 0.00
3:53 am 03:53 Clear 61 16.1 29 -1.7 30 30 NNW 10 17 29.72 1007 10 16 0.00 0.00
4:53 am 04:53 Clear 60 15.6 27 -2.8 28 28 N 8 13 29.73 1007 10 16 0.00 0.00
5:53 am 05:53 Clear 59 15 25 -3.9 27 27 NNW 9 15 29.75 1007 10 16 0.00 0.00
6:53 am 06:53 Sunny 58 14.4 21 -6.1 24 24 N 5 7 29.77 1008 10 16 0.00 0.00
7:53 am 07:53 Sunny 60 15.6 22 -5.6 23 23 N 15 24 29.78 1009 10 16 0.00 0.00
8:53 am 08:53 Sunny 63 17.2 20 -6.7 19 19 N 17 28 29.79 1009 10 16 0.00 0.00
9:53 am 09:53 Sunny 66 18.9 21 -6.1 18 18 NNE 15 24 29.79 1009 10 16 0.00 0.00
10:53 am 10:53 Sunny 68 20 21 -6.1 17 17 NNE 21 33 29.78 1009 10 16 0.00 0.00
11:53 am 11:53 Sunny 70 21.1 23 -5 17 17 N 15 24 29.78 1008 10 16 0.00 0.00
12:53 pm 12:53 Sunny 72 22.2 24 -4.4 17 17 N 13 20 29.77 1008 10 16 0.00 0.00
1:53 pm 13:53 Sunny 74 23.3 24 -4.4 15 15 NE 12 19 29.75 1007 10 16 0.00 0.00
2:53 pm 14:53 Sunny 75 23.9 22 -5.6 14 14 NE 10 17 29.73 1007 10 16 0.00 0.00
3:53 pm 15:53 Sunny 76 24.4 23 -5 14 14 ENE 20 31 29.71 1006 10 16 0.00 0.00
4:53 pm 16:53 Sunny 72 22.2 18 -7.8 13 13 NNE 20 31 29.72 1006 10 16 0.00 0.00
5:53 pm 17:53 Sunny 70 21.1 20 -6.7 15 15 NE 20 31 29.73 1007 10 16 0.00 0.00
6:53 pm 18:53 Sunny 68 20 21 -6.1 17 17 NE 23 37 29.74 1007 10 16 0.00 0.00
7:53 pm 19:53 Clear 66 18.9 22 -5.6 19 19 N 16 26 29.77 1008 10 16 0.00 0.00
8:53 pm 20:53 Clear 64 17.8 24 -4.4 22 22 N 14 22 29.80 1009 10 16 0.00 0.00
9:53 pm 21:53 Clear 63 17.2 25 -3.9 24 24 N 14 22 29.82 1010 10 16 0.00 0.00
10:53 pm 22:53 Clear 62 16.7 26 -3.3 25 25 NNE 16 26 29.85 1011 10 16 0.00 0.00
11:53 pm 23:53 Clear 60 15.6 27 -2.8 28 28 N 14 22 29.86 1011 10 16 0.00 0.00

Powered by AerisWeather